Temperature
13 13 13 13 13 13 13 13 13 13 13 13 13 13 13 13 13 12 12 12 12 12 12 12 12 11 11 11 11 11 11 11 11 11 11 11 10 10 10 10 10 10 10
13 13 13 13 13 13 13 13 13 13 13 13 13 13 13 13 12 12 12 12 12 12 12 12 11 11 11 11 11 11 11 11 11 11 11 10 10 10 10 10 10 10 10
13 13 13 13 13 13 13 13 13 13 13 13 13 12 12 12 12 12 12 12 12 12 12 11 11 11 11 11 11 11 11 11 11 10 10 10 10 10 10 10 10 10 10
13 13 13 13 13 13 13 13 12 12 12 12 12 12 12 12 12 12 12 12 11 11 11 11 11 11 11 11 10 10 10 10 10 10 10 10 10 10 10 10 10 10 10
13 13 13 13 13 13 13 13 12 12 12 12 12 12 12 12 12 12 11 11 11 11 11 11 11 11 11 11 10 10 10 10 10 10 10 10 10 10 10 9 9 9 9
12 12 12 12 12 13 12 12 12 12 12 12 12 12 12 12 12 12 11 11 11 11 11 11 11 11 10 10 10 10 10 10 10 10 10 10 10 10 9 9 9 9 9
12 12 12 12 12 12 12 12 12 12 12 11 12 11 11 11 11 11 11 11 11 11 11 10 10 10 10 10 10 10 10 10 10 9 9 10 10 10 9 9 9 9 9
12 12 12 12 12 12 12 12 11 11 11 11 11 11 11 11 11 11 11 11 10 10 10 10 10 10 10 10 10 9 9 9 9 9 9 9 9 9 9 9 9 9 9
11 11 12 11 11 11 11 11 11 11 11 11 11 11 11 10 11 11 10 10 10 10 10 10 10 10 10 10 9 9 9 9 9 9 9 9 9 9 9 9 9 8 8
11 11 11 11 11 11 11 11 11 11 11 10 10 10 10 10 10 10 10 10 10 10 9 9 10 9 9 9 9 9 9 9 9 9 9 9 9 9 9 9 8 8 8
11 11 11 11 11 11 11 11 10 10 10 10 10 10 10 10 10 10 10 9 9 9 9 9 9 9 9 9 9 8 9 9 8 8 8 8 8 9 9 9 8 8 8
10 10 10 10 10 10 10 10 10 10 10 9 9 9 9 9 9 9 9 9 9 9 8 9 9 9 9 9 8 8 8 8 8 8 8 8 8 8 8 8 8 8 8
9 9 10 10 10 10 10 9 9 9 9 9 9 9 9 9 9 9 9 9 9 8 8 8 8 8 8 8 8 8 8 8 7 7 7 8 8 8 8 8 8 8 8
9 9 9 9 9 9 9 9 9 9 9 9 8 8 8 8 8 8 8 8 8 8 8 8 8 8 8 8 8 8 7 7 7 7 7 7 7 7 7 7 7 7 7
8 8 8 9 9 9 9 9 8 8 8 8 8 8 8 8 8 8 8 8 8 8 7 7 7 7 7 7 7 7 7 7 7 7 7 7 7 7 7 7 7 7 7
8 8 8 8 8 8 8 8 8 8 8 8 8 8 7 8 7 7 7 7 7 7 7 6 6 7 7 7 7 7 7 7 6 6 6 6 6 6 6 6 6 6 6
7 7 8 8 8 7 7 7 7 8 8 8 8 8 7 7 7 7 7 6 6 6 6 6 6 6 6 6 6 6 6 6 6 6 6 6 6 6 6 6 6 6 6
7 7 7 7 7 7 7 7 7 7 7 7 7 7 7 7 7 7 6 6 6 6 6 6 6 5 6 6 6 6 6 6 6 6 6 5 5 5 5 5 5 5 5
7 7 7 7 7 7 7 7 7 7 7 7 7 7 7 7 6 6 6 6 5 5 5 5 5 5 5 5 5 5 5 5 5 5 5 5 5 5 5 5 5 5 5
6 6 6 6 6 6 6 6 6 6 6 6 6 6 6 6 6 6 5 5 5 5 5 5 5 5 5 5 5 5 5 5 5 5 5 4 4 4 4 4 4 4 4
6 6 6 6 6 6 6 6 6 6 6 6 6 6 6 5 5 5 5 5 5 5 5 5 5 5 5 4 4 4 4 4 4 4 4 4 4 4 4 4 4 3 3
5 5 5 5 5 5 5 5 5 5 5 5 5 5 5 5 5 5 4 5 5 4 4 4 4 4 4 4 4 4 4 4 4 4 4 4 3 3 3 3 3 3 3
5 5 5 5 5 5 5 5 5 5 5 5 5 5 5 5 4 4 4 4 4 4 4 4 4 4 4 4 4 4 4 3 3 3 3 3 3 3 3 3 3 2 2
4 4 4 4 4 4 4 4 4 4 4 4 4 4 4 4 4 4 4 4 4 4 4 4 4 4 4 4 3 3 3 3 3 3 3 2 2 2 2 2 2 2 2
3 3 3 4 4 4 4 4 4 4 3 3 4 4 4 4 4 4 3 3 3 3 3 3 3 3 3 3 3 3 3 3 3 2 2 2 2 2 2 2 2 2 1
3 3 3 3 3 3 3 3 3 3 3 3 3 3 3 3 3 3 3 3 3 2 2 2 2 2 2 2 2 2 2 2 2 2 2 2 2 1 1 1 1 1 1
Wind_Speed
6 6 6 6 6 5 5 5 5 4 4 5 5 4 4 4 4 4 4 3 3 3 2 2 2 2 2 2 2 2 2 2 2 2 1 1 1 0 1 1 1 1 3
6 6 6 6 6 5 5 5 5 5 5 5 5 4 4 4 4 4 4 4 4 3 3 3 3 2 2 2 2 2 2 3 3 3 2 2 1 1 0 0 1 1 1
6 6 6 6 6 6 6 5 5 5 5 5 5 5 5 5 5 5 5 5 4 4 4 4 4 3 3 3 3 3 3 3 3 3 3 2 2 1 1 1 1 0 1
6 6 6 6 6 6 5 5 5 5 5 5 5 5 5 5 5 5 5 5 5 4 4 4 4 4 4 3 3 3 3 4 4 4 4 3 3 3 2 2 1 1 1
6 6 5 5 5 5 5 4 4 4 5 5 5 5 5 4 4 5 5 5 5 5 4 4 4 3 2 3 3 3 4 4 4 4 4 4 3 3 3 2 2 2 2
6 5 4 4 4 4 4 4 4 4 5 5 5 5 5 4 3 3 5 6 6 5 5 5 4 4 4 4 3 4 5 6 5 5 5 5 6 5 3 3 3 3 3
5 5 4 4 4 4 4 4 4 4 4 4 5 5 5 4 4 5 5 6 6 5 5 5 4 4 5 5 4 5 5 6 7 7 7 7 6 5 5 5 5 5 4
4 4 4 4 4 4 4 4 4 4 4 4 5 5 4 3 4 5 6 7 6 6 5 6 5 5 4 5 5 5 5 6 6 7 7 6 5 5 6 6 5 4 3
4 4 4 4 4 4 4 5 4 4 4 4 4 5 5 4 3 4 5 5 5 6 5 6 5 6 2 4 6 6 6 5 4 5 5 4 3 4 4 4 5 4 4
5 5 5 4 4 5 4 4 4 3 4 3 4 4 5 4 4 4 6 4 5 5 5 5 4 4 3 4 6 6 6 5 4 5 5 5 5 5 7 7 6 6 5
3 3 4 4 4 4 4 3 3 3 3 3 3 4 4 4 4 4 5 5 4 5 5 5 4 4 4 6 7 6 6 6 5 6 5 5 5 5 6 7 6 6 6
2 3 3 3 3 3 3 3 4 4 4 3 3 3 3 4 3 4 6 7 5 5 5 5 3 4 6 7 6 5 5 5 5 5 5 5 5 5 5 6 7 7 6
2 3 3 3 3 3 3 3 3 4 4 3 3 4 4 4 3 5 6 7 7 6 5 4 4 5 7 7 7 6 6 5 5 5 6 5 5 5 4 4 5 5 5
2 2 3 3 3 3 3 3 4 4 4 4 4 4 4 3 3 3 4 5 7 7 5 5 6 7 8 6 6 6 5 5 5 6 6 5 4 4 4 4 4 4 4
2 2 3 3 3 3 3 3 4 4 4 5 5 5 4 4 3 3 4 4 5 5 5 4 4 4 5 5 5 5 5 5 5 5 5 5 4 4 4 4 4 5 5
3 2 3 3 3 3 3 3 3 4 3 4 5 5 5 5 4 5 5 5 5 5 5 5 5 5 5 5 5 5 5 5 5 5 5 5 5 5 5 4 4 5 5
4 3 3 3 3 3 4 4 3 3 4 5 5 5 6 5 4 5 6 5 5 6 5 6 6 6 6 5 5 5 5 5 5 5 5 6 5 5 5 5 5 5 5
4 4 4 4 4 4 4 4 4 4 4 4 4 5 6 6 6 6 6 5 5 6 6 6 6 6 6 6 5 5 5 4 4 5 5 5 6 6 5 6 6 6 5
4 4 4 4 4 4 4 4 4 5 5 4 3 3 5 6 6 6 6 6 6 6 6 6 6 6 6 6 5 5 5 5 5 5 5 5 5 5 6 6 6 6 6
4 4 5 4 4 4 4 4 5 5 5 4 4 4 3 3 4 4 5 6 6 6 6 6 6 6 6 6 5 5 5 5 6 6 6 6 5 5 6 6 6 6 6
4 4 5 5 4 4 4 5 5 5 5 5 5 4 4 4 5 5 5 6 6 6 6 6 6 6 5 5 5 6 6 6 6 6 6 6 5 5 6 6 6 6 5
4 4 4 4 4 4 5 5 5 5 5 6 5 4 4 5 5 5 5 6 6 6 5 5 5 5 5 5 5 6 6 6 6 6 6 6 6 6 6 6 6 5 5
5 5 5 4 5 5 5 5 5 5 5 5 5 4 4 5 5 5 5 5 5 5 4 5 5 5 5 5 5 6 6 5 5 5 6 6 6 6 6 6 7 7 6
5 5 5 5 5 5 5 5 5 5 5 5 5 5 5 5 5 5 5 5 5 4 4 5 5 6 7 6 5 6 6 5 6 6 7 6 6 6 6 6 7 7 7
5 5 5 5 5 5 5 5 5 5 5 5 5 5 5 5 5 5 5 4 5 5 5 5 5 5 7 7 6 6 5 5 6 6 6 6 6 6 7 7 6 6 7
5 6 5 5 5 5 5 5 6 6 6 5 5 5 5 5 5 5 5 4 4 5 5 5 6 6 7 7 7 6 5 6 6 6 6 5 5 5 6 6 7 7 7
Wind_Direction
207 208 203 206 210 210 213 216 215 210 204 204 201 201 197 198 203 201 213 217 228 224 225 235 235 242 235 238 248 247 244 239 238 260 256 222 188 101 59 40 39 102 108
208 208 209 207 207 209 213 217 215 209 208 209 201 202 203 207 211 210 217 219 228 234 236 235 232 223 238 248 247 243 234 229 224 238 239 240 239 185 101 344 25 84 111
204 206 211 210 208 211 215 215 216 215 212 211 207 207 207 211 214 219 223 228 232 234 235 239 237 229 233 237 239 243 239 230 225 228 236 236 229 211 216 233 232 147 136
203 204 211 214 211 211 216 216 218 217 215 211 211 210 213 214 218 220 221 224 229 232 237 240 241 238 244 249 245 246 243 236 228 228 228 226 221 214 218 226 239 221 227
206 208 212 214 211 208 208 213 216 216 220 218 215 212 213 216 222 224 222 226 229 232 236 242 241 242 272 261 255 251 250 245 235 230 227 231 228 219 226 229 234 226 241
211 214 212 214 212 207 203 207 210 211 218 219 219 219 215 216 196 228 240 226 231 235 237 239 235 226 230 227 244 259 257 246 241 238 235 232 233 232 228 224 228 233 247
211 211 209 209 207 207 201 200 205 207 209 218 218 218 221 206 179 206 236 236 231 235 239 240 235 230 232 240 228 232 241 243 247 249 246 245 243 233 225 228 234 239 248
208 209 205 210 211 210 204 203 210 211 207 219 222 216 221 212 186 206 223 234 236 234 237 243 239 235 232 247 241 240 246 243 238 244 253 255 251 239 232 236 240 241 250
206 209 206 207 208 209 211 211 209 210 214 220 228 221 217 206 177 201 223 234 237 236 235 237 243 241 226 253 247 246 249 244 226 237 267 275 266 241 230 221 217 222 239
208 210 209 205 205 207 211 209 206 211 215 218 229 228 224 221 174 195 225 232 240 240 240 236 230 248 223 240 243 247 253 254 244 233 235 235 234 214 210 222 224 230 239
214 211 208 206 208 207 206 211 208 210 212 216 228 233 233 235 192 194 225 238 242 245 244 243 235 221 232 241 253 248 255 262 247 240 238 234 229 224 218 227 230 234 240
222 213 213 212 210 211 205 214 214 209 211 218 230 240 242 235 226 209 221 242 259 246 250 253 250 223 232 235 240 246 250 253 247 243 240 237 233 232 229 228 230 233 246
218 214 211 212 210 211 207 210 216 216 220 223 231 242 245 243 226 213 225 234 244 250 253 260 257 240 238 233 228 234 233 237 239 242 242 244 244 241 233 227 229 231 238
225 221 215 215 218 217 215 216 222 221 224 229 235 244 251 245 245 243 240 235 230 242 251 238 228 230 234 233 225 227 236 240 242 243 247 246 243 233 228 224 224 220 229
249 241 233 230 236 239 232 236 237 233 239 240 242 246 251 250 251 263 259 252 249 247 251 247 244 239 239 237 235 232 233 235 240 244 244 243 235 230 230 228 228 225 234
267 263 253 241 240 244 244 243 248 249 245 249 263 266 257 262 267 252 256 262 254 240 237 242 243 241 240 242 240 236 234 233 237 240 240 239 235 230 226 224 229 229 234
279 273 261 250 247 248 249 247 253 248 230 232 236 246 258 266 251 243 243 243 232 218 233 242 244 245 247 247 245 244 245 245 241 239 239 239 238 233 226 225 227 235 240
289 278 272 256 253 255 256 252 251 255 257 258 236 227 237 244 243 242 238 231 231 222 238 243 244 246 247 248 247 247 250 249 243 241 243 243 238 232 228 229 228 232 238
288 279 275 267 260 260 258 255 253 253 259 265 268 242 229 236 234 236 226 235 241 244 245 246 247 248 248 248 248 246 245 246 247 244 241 242 242 238 237 237 235 230 234
288 283 284 273 260 258 258 256 255 255 258 262 263 266 257 248 256 251 240 244 248 249 250 251 249 247 246 245 244 244 244 243 245 244 243 239 236 236 236 238 240 236 234
290 281 273 272 261 260 260 261 261 261 262 263 265 266 260 250 255 256 252 249 250 251 250 250 249 249 248 245 246 245 244 244 243 244 241 240 239 239 237 235 237 238 239
284 280 272 270 267 263 266 265 265 265 264 266 272 264 235 248 254 256 254 253 253 253 252 250 249 248 248 248 244 247 248 248 247 244 243 240 239 241 241 236 233 234 235
289 282 276 272 269 266 264 267 266 265 267 268 270 268 260 258 259 261 261 261 259 256 255 252 251 252 256 254 250 247 247 251 254 253 248 244 241 240 239 236 234 235 235
296 286 280 279 278 273 269 268 266 266 266 267 268 266 265 264 264 264 263 264 260 257 254 252 252 253 257 259 254 251 254 258 258 254 248 245 244 244 243 240 237 235 235
300 293 286 283 281 275 269 269 270 270 271 270 269 268 267 267 267 266 263 262 264 261 256 255 254 253 253 255 255 256 262 261 253 254 249 245 245 245 246 244 239 239 238
299 297 291 285 283 280 275 274 273 273 271 271 272 272 269 268 268 268 264 260 262 261 259 258 255 253 253 252 254 257 254 250 247 249 249 246 244 247 248 245 240 237 238
Height
1523 1524 1525 1526 1527 1528 1529 1529 1530 1531 1532 1532 1533 1533 1534 1535 1535 1535 1535 1535 1536 1536 1536 1536 1536 1536 1535 1535 1535 1535 1535 1535 1535 1535 1535 1535 1534 1533 1532 1531 1531 1531 1530
1520 1521 1523 1524 1524 1525 1526 1527 1528 1529 1530 1531 1531 1531 1532 1532 1533 1533 1533 1534 1534 1534 1534 1534 1534 1534 1534 1534 1533 1534 1534 1534 1534 1533 1533 1533 1533 1532 1531 1530 1530 1530 1529
1518 1519 1520 1521 1522 1523 1524 1525 1526 1527 1527 1528 1529 1529 1529 1530 1530 1531 1531 1531 1532 1532 1532 1532 1532 1532 1532 1532 1532 1532 1532 1532 1531 1531 1531 1531 1531 1530 1530 1529 1529 1528 1528
1515 1516 1517 1518 1519 1520 1521 1522 1523 1524 1524 1525 1526 1526 1527 1527 1528 1528 1529 1529 1529 1529 1530 1530 1530 1530 1530 1530 1530 1530 1530 1529 1529 1529 1529 1529 1528 1528 1528 1528 1527 1527 1527
1512 1513 1514 1515 1516 1517 1518 1519 1519 1520 1521 1522 1523 1523 1524 1524 1525 1525 1526 1526 1527 1527 1527 1527 1527 1527 1527 1527 1527 1526 1527 1527 1526 1526 1526 1526 1526 1526 1526 1525 1525 1525 1525
1508 1510 1511 1511 1512 1513 1514 1515 1516 1516 1517 1518 1519 1520 1521 1521 1521 1522 1523 1523 1524 1524 1524 1524 1524 1524 1523 1523 1523 1523 1523 1523 1523 1523 1523 1523 1523 1523 1523 1523 1523 1523 1523
1505 1506 1507 1508 1509 1510 1511 1511 1512 1513 1514 1514 1515 1516 1517 1517 1518 1518 1519 1520 1520 1521 1521 1521 1520 1520 1520 1520 1520 1520 1519 1519 1520 1520 1520 1520 1520 1520 1520 1520 1520 1520 1520
1501 1502 1504 1505 1506 1506 1507 1508 1509 1509 1510 1511 1511 1512 1513 1513 1514 1514 1515 1516 1517 1517 1517 1517 1517 1517 1517 1517 1516 1516 1516 1516 1516 1516 1517 1516 1517 1517 1517 1517 1517 1517 1517
1498 1499 1500 1501 1502 1503 1504 1505 1505 1506 1506 1507 1508 1509 1509 1509 1510 1510 1511 1512 1513 1513 1513 1513 1513 1513 1513 1513 1513 1513 1513 1512 1512 1512 1512 1512 1512 1513 1513 1514 1514 1514 1514
1495 1496 1497 1498 1499 1500 1501 1501 1502 1502 1503 1504 1504 1504 1505 1505 1506 1506 1507 1508 1509 1509 1509 1509 1509 1509 1509 1509 1509 1509 1509 1508 1508 1508 1508 1509 1509 1509 1509 1510 1510 1510 1510
1492 1493 1494 1495 1496 1497 1497 1498 1498 1499 1499 1500 1500 1500 1501 1501 1502 1502 1503 1504 1504 1505 1505 1505 1505 1505 1505 1505 1505 1505 1505 1504 1504 1504 1504 1504 1505 1505 1505 1506 1506 1506 1506
1489 1490 1491 1492 1492 1493 1494 1494 1495 1496 1496 1496 1497 1497 1497 1498 1498 1498 1499 1499 1500 1500 1500 1500 1501 1501 1501 1501 1501 1501 1501 1501 1501 1501 1500 1501 1501 1501 1501 1501 1502 1502 1502
1486 1487 1488 1489 1489 1490 1490 1491 1492 1492 1492 1493 1493 1494 1494 1494 1494 1494 1494 1495 1495 1496 1496 1496 1496 1496 1496 1496 1496 1496 1496 1496 1496 1496 1496 1496 1496 1497 1497 1497 1497 1497 1497
1484 1484 1485 1485 1486 1486 1487 1488 1488 1488 1489 1489 1489 1490 1490 1490 1490 1490 1490 1491 1491 1491 1491 1491 1491 1491 1492 1492 1492 1492 1492 1492 1492 1492 1492 1492 1492 1492 1492 1492 1493 1492 1493
1482 1481 1481 1482 1482 1483 1483 1484 1484 1485 1485 1485 1485 1486 1486 1486 1486 1486 1485 1486 1486 1486 1486 1486 1487 1487 1487 1487 1487 1487 1487 1487 1487 1487 1487 1487 1487 1487 1487 1488 1488 1488 1488
1479 1479 1478 1478 1478 1479 1480 1480 1481 1481 1481 1481 1481 1482 1482 1482 1482 1481 1481 1481 1481 1481 1482 1482 1482 1482 1482 1482 1482 1482 1482 1482 1482 1482 1482 1482 1483 1482 1483 1483 1483 1484 1484
1477 1476 1475 1475 1475 1476 1476 1476 1476 1477 1477 1477 1477 1477 1477 1477 1477 1477 1477 1477 1477 1477 1477 1477 1477 1477 1477 1477 1477 1477 1477 1477 1477 1477 1478 1478 1478 1478 1478 1478 1478 1478 1479
1474 1473 1473 1473 1473 1473 1473 1473 1473 1473 1473 1472 1472 1472 1472 1472 1472 1472 1472 1472 1472 1472 1471 1471 1472 1472 1472 1472 1472 1472 1472 1472 1472 1472 1472 1473 1472 1473 1473 1473 1473 1473 1473
1470 1470 1470 1469 1469 1469 1469 1469 1469 1469 1469 1468 1468 1468 1468 1468 1468 1468 1467 1467 1466 1466 1466 1466 1466 1466 1466 1467 1467 1467 1467 1467 1467 1467 1467 1467 1467 1467 1467 1467 1467 1467 1468
1467 1466 1466 1466 1465 1465 1465 1465 1465 1465 1465 1464 1464 1463 1463 1463 1462 1462 1462 1462 1462 1461 1461 1461 1461 1461 1461 1461 1462 1462 1462 1462 1462 1462 1462 1462 1462 1462 1462 1462 1462 1462 1462
1463 1463 1463 1462 1462 1461 1461 1461 1461 1461 1460 1460 1460 1459 1459 1459 1458 1458 1457 1457 1457 1457 1456 1456 1456 1456 1456 1456 1456 1456 1457 1457 1457 1456 1456 1456 1456 1456 1456 1457 1457 1456 1456
1460 1459 1459 1458 1458 1457 1457 1457 1456 1456 1456 1455 1455 1455 1454 1454 1453 1453 1452 1452 1452 1451 1451 1451 1451 1450 1451 1451 1451 1451 1451 1451 1451 1451 1451 1451 1451 1451 1451 1451 1451 1451 1451
1456 1456 1455 1454 1454 1453 1452 1452 1451 1451 1451 1451 1450 1450 1449 1449 1449 1448 1447 1447 1446 1446 1446 1446 1446 1446 1446 1446 1446 1446 1446 1445 1445 1446 1445 1445 1445 1445 1445 1445 1446 1446 1446
1453 1452 1451 1450 1450 1449 1448 1447 1447 1447 1446 1446 1445 1445 1444 1444 1443 1442 1442 1441 1441 1441 1441 1441 1440 1440 1441 1441 1440 1440 1440 1440 1440 1440 1440 1440 1440 1440 1440 1440 1440 1441 1441
1449 1448 1447 1446 1445 1445 1444 1443 1443 1442 1441 1440 1440 1439 1439 1438 1438 1437 1436 1436 1436 1435 1435 1435 1435 1435 1435 1435 1435 1435 1435 1435 1435 1435 1435 1435 1435 1435 1435 1435 1435 1435 1435
1446 1444 1443 1442 1441 1440 1439 1439 1438 1437 1436 1435 1435 1434 1434 1433 1432 1432 1431 1430 1430 1430 1430 1429 1429 1429 1429 1429 1429 1430 1430 1430 1430 1430 1430 1430 1429 1429 1429 1429 1430 1430 1430